• In Deutschland
  • Länderverzeichnis
  • Für 7 Tage
  • Wassertemperatur
  • Satellitenkarten
  • Wetterkarte
  • Widgets
  • user-avatar
    Anmelden

    Stündliche Wetter Kerewan

    Heute, 15 Dezember, Freitag

    Zeit Temperatur Niederschläge Wind Luftdruck Luftfeuchtigkeit
    00:00 +23°C° 0 mm 4 m/S 759 mmHg 18%
    01:00 +22°C° 0 mm 4 m/S 759 mmHg 18%
    02:00 +21°C° 0 mm 4 m/S 758 mmHg 19%
    03:00 +21°C° 0 mm 4 m/S 758 mmHg 19%
    04:00 +20°C° 0 mm 4 m/S 758 mmHg 20%
    05:00 +20°C° 0 mm 3 m/S 758 mmHg 20%
    06:00 +21°C° 0 mm 4 m/S 759 mmHg 20%
    07:00 +22°C° 0 mm 4 m/S 759 mmHg 19%
    08:00 +23°C° 0 mm 5 m/S 759 mmHg 19%
    09:00 +27°C° 0 mm 5 m/S 759 mmHg 17%
    10:00 +29°C° 0 mm 5 m/S 759 mmHg 16%
    11:00 +33°C° 0 mm 5 m/S 758 mmHg 14%
    12:00 +34°C° 0 mm 4 m/S 758 mmHg 14%
    13:00 +35°C° 0 mm 4 m/S 757 mmHg 14%
    14:00 +37°C° 0 mm 3 m/S 756 mmHg 15%
    15:00 +36°C° 0 mm 3 m/S 756 mmHg 16%
    16:00 +35°C° 0 mm 2 m/S 756 mmHg 17%
    17:00 +35°C° 0 mm 2 m/S 756 mmHg 18%
    18:00 +32°C° 0 mm 2 m/S 757 mmHg 20%
    19:00 +30°C° 0 mm 3 m/S 757 mmHg 22%
    20:00 +29°C° 0 mm 3 m/S 758 mmHg 24%
    21:00 +28°C° 0 mm 3 m/S 758 mmHg 23%
    22:00 +27°C° 0 mm 3 m/S 758 mmHg 21%
    23:00 +27°C° 0 mm 4 m/S 758 mmHg 20%

    Morgen, 16 Dezember, Samstag

    Zeit Temperatur Niederschläge Wind Luftdruck Luftfeuchtigkeit
    00:00 +26°C° 0 mm 4 m/S 758 mmHg 19%
    01:00 +26°C° 0 mm 4 m/S 758 mmHg 17%
    02:00 +25°C° 0 mm 4 m/S 758 mmHg 16%
    03:00 +25°C° 0 mm 4 m/S 758 mmHg 16%
    04:00 +23°C° 0 mm 4 m/S 757 mmHg 16%
    05:00 +24°C° 0 mm 3 m/S 757 mmHg 16%
    06:00 +25°C° 0 mm 4 m/S 758 mmHg 15%
    07:00 +25°C° 0 mm 4 m/S 758 mmHg 15%
    08:00 +26°C° 0 mm 4 m/S 759 mmHg 15%
    09:00 +29°C° 0 mm 5 m/S 759 mmHg 14%
    10:00 +32°C° 0 mm 5 m/S 759 mmHg 12%
    11:00 +35°C° 0 mm 5 m/S 759 mmHg 11%
    12:00 +36°C° 0 mm 5 m/S 758 mmHg 11%
    13:00 +37°C° 0 mm 4 m/S 757 mmHg 11%
    14:00 +38°C° 0 mm 4 m/S 757 mmHg 11%
    15:00 +38°C° 0 mm 3 m/S 756 mmHg 12%
    16:00 +37°C° 0 mm 3 m/S 756 mmHg 14%
    17:00 +36°C° 0 mm 2 m/S 756 mmHg 15%
    18:00 +35°C° 0 mm 2 m/S 757 mmHg 17%
    19:00 +33°C° 0 mm 3 m/S 757 mmHg 19%
    20:00 +31°C° 0 mm 3 m/S 758 mmHg 22%
    21:00 +30°C° 0 mm 3 m/S 758 mmHg 21%
    22:00 +30°C° 0 mm 3 m/S 759 mmHg 20%
    23:00 +29°C° 0 mm 4 m/S 759 mmHg 19%

    übermorgen, 17 Dezember, Sonntag

    Zeit Temperatur Niederschläge Wind Luftdruck Luftfeuchtigkeit
    00:00 +28°C° 0 mm 4 m/S 758 mmHg 18%
    01:00 +28°C° 0 mm 4 m/S 758 mmHg 17%
    02:00 +27°C° 0 mm 4 m/S 758 mmHg 15%
    03:00 +26°C° 0 mm 3 m/S 758 mmHg 16%
    04:00 +25°C° 0 mm 3 m/S 758 mmHg 16%
    05:00 +25°C° 0 mm 3 m/S 758 mmHg 16%
    06:00 +25°C° 0 mm 4 m/S 758 mmHg 16%
    07:00 +26°C° 0 mm 4 m/S 759 mmHg 15%
    08:00 +27°C° 0 mm 4 m/S 759 mmHg 15%
    09:00 +29°C° 0 mm 4 m/S 759 mmHg 14%
    10:00 +33°C° 0 mm 5 m/S 759 mmHg 12%
    11:00 +36°C° 0 mm 5 m/S 759 mmHg 11%
    12:00 +37°C° 0 mm 4 m/S 758 mmHg 11%
    13:00 +38°C° 0 mm 4 m/S 757 mmHg 12%
    14:00 +40°C° 0 mm 4 m/S 756 mmHg 12%
    15:00 +38°C° 0 mm 4 m/S 756 mmHg 13%
    16:00 +37°C° 0 mm 4 m/S 756 mmHg 15%
    17:00 +36°C° 0 mm 3 m/S 756 mmHg 16%
    18:00 +35°C° 0 mm 4 m/S 757 mmHg 17%
    19:00 +33°C° 0 mm 4 m/S 757 mmHg 19%
    20:00 +30°C° 0 mm 4 m/S 758 mmHg 20%
    21:00 +30°C° 0 mm 4 m/S 758 mmHg 18%
    22:00 +29°C° 0 mm 4 m/S 758 mmHg 17%
    23:00 +28°C° 0 mm 4 m/S 758 mmHg 15%

    18 Dezember, Montag

    Zeit Temperatur Niederschläge Wind Luftdruck Luftfeuchtigkeit
    00:00 +28°C° 0 mm 4 m/S 758 mmHg 14%
    01:00 +27°C° 0 mm 4 m/S 758 mmHg 14%
    02:00 +27°C° 0 mm 4 m/S 757 mmHg 14%
    03:00 +26°C° 0 mm 4 m/S 757 mmHg 15%
    04:00 +26°C° 0 mm 4 m/S 757 mmHg 16%
    05:00 +25°C° 0 mm 5 m/S 757 mmHg 16%
    06:00 +26°C° 0 mm 5 m/S 758 mmHg 16%
    07:00 +26°C° 0 mm 5 m/S 758 mmHg 17%
    08:00 +27°C° 0 mm 5 m/S 759 mmHg 17%
    09:00 +29°C° 0 mm 5 m/S 759 mmHg 15%
    10:00 +32°C° 0 mm 5 m/S 758 mmHg 13%
    11:00 +34°C° 0 mm 5 m/S 758 mmHg 11%
    12:00 +36°C° 0 mm 4 m/S 757 mmHg 11%
    13:00 +37°C° 0 mm 4 m/S 756 mmHg 12%
    14:00 +38°C° 0 mm 3 m/S 755 mmHg 12%
    15:00 +37°C° 0 mm 3 m/S 755 mmHg 13%
    16:00 +37°C° 0 mm 3 m/S 755 mmHg 14%
    17:00 +36°C° 0 mm 3 m/S 755 mmHg 15%
    18:00 +34°C° 0 mm 3 m/S 756 mmHg 17%
    19:00 +31°C° 0 mm 3 m/S 756 mmHg 19%
    20:00 +29°C° 0 mm 3 m/S 757 mmHg 21%
    21:00 +29°C° 0 mm 3 m/S 757 mmHg 21%
    22:00 +28°C° 0 mm 3 m/S 757 mmHg 20%
    23:00 +27°C° 0 mm 3 m/S 757 mmHg 19%

    19 Dezember, Dienstag

    Zeit Temperatur Niederschläge Wind Luftdruck Luftfeuchtigkeit
    00:00 +26°C° 0 mm 3 m/S 757 mmHg 18%
    01:00 +26°C° 0 mm 3 m/S 756 mmHg 18%
    02:00 +25°C° 0 mm 3 m/S 756 mmHg 17%
    03:00 +25°C° 0 mm 3 m/S 756 mmHg 18%
    04:00 +24°C° 0 mm 3 m/S 756 mmHg 19%
    05:00 +24°C° 0 mm 3 m/S 756 mmHg 20%
    06:00 +23°C° 0 mm 4 m/S 757 mmHg 21%
    07:00 +25°C° 0 mm 4 m/S 757 mmHg 22%
    08:00 +26°C° 0 mm 4 m/S 758 mmHg 22%
    09:00 +29°C° 0 mm 4 m/S 758 mmHg 19%
    10:00 +32°C° 0 mm 4 m/S 758 mmHg 16%
    11:00 +35°C° 0 mm 4 m/S 757 mmHg 12%
    12:00 +36°C° 0 mm 3 m/S 757 mmHg 12%
    13:00 +37°C° 0 mm 3 m/S 756 mmHg 12%
    14:00 +38°C° 0 mm 2 m/S 755 mmHg 11%
    15:00 +37°C° 0 mm 2 m/S 755 mmHg 13%
    16:00 +36°C° 0 mm 2 m/S 755 mmHg 15%
    17:00 +36°C° 0 mm 2 m/S 755 mmHg 17%
    18:00 +34°C° 0 mm 3 m/S 755 mmHg 21%
    19:00 +31°C° 0 mm 3 m/S 756 mmHg 25%
    20:00 +29°C° 0 mm 3 m/S 756 mmHg 29%
    21:00 +29°C° 0 mm 3 m/S 757 mmHg 30%
    22:00 +28°C° 0 mm 3 m/S 757 mmHg 30%
    23:00 +28°C° 0 mm 3 m/S 757 mmHg 30%

    20 Dezember, Mittwoch

    Zeit Temperatur Niederschläge Wind Luftdruck Luftfeuchtigkeit
    00:00 +27°C° 0 mm 3 m/S 756 mmHg 28%
    01:00 +27°C° 0 mm 3 m/S 756 mmHg 25%
    02:00 +26°C° 0 mm 3 m/S 756 mmHg 23%
    03:00 +26°C° 0 mm 3 m/S 756 mmHg 22%
    04:00 +26°C° 0 mm 3 m/S 756 mmHg 20%
    05:00 +25°C° 0 mm 4 m/S 756 mmHg 19%
    06:00 +26°C° 0 mm 4 m/S 757 mmHg 19%
    07:00 +27°C° 0 mm 5 m/S 757 mmHg 19%
    08:00 +28°C° 0 mm 6 m/S 758 mmHg 19%
    09:00 +30°C° 0 mm 6 m/S 758 mmHg 17%
    10:00 +33°C° 0 mm 5 m/S 757 mmHg 16%
    11:00 +35°C° 0 mm 5 m/S 757 mmHg 15%
    12:00 +36°C° 0 mm 5 m/S 757 mmHg 14%
    13:00 +37°C° 0 mm 4 m/S 756 mmHg 13%
    14:00 +38°C° 0 mm 4 m/S 755 mmHg 12%
    15:00 +37°C° 0 mm 3 m/S 755 mmHg 13%
    16:00 +37°C° 0 mm 3 m/S 755 mmHg 14%
    17:00 +36°C° 0 mm 3 m/S 755 mmHg 15%
    18:00 +35°C° 0 mm 3 m/S 756 mmHg 16%
    19:00 +33°C° 0 mm 3 m/S 756 mmHg 17%
    20:00 +31°C° 0 mm 3 m/S 757 mmHg 18%
    21:00 +30°C° 0 mm 4 m/S 757 mmHg 19%
    22:00 +29°C° 0 mm 4 m/S 757 mmHg 19%
    23:00 +28°C° 0 mm 5 m/S 757 mmHg 20%
    Mehr zeigen